Mattaponi, VA

3:09 PM EST on January 23, 2017 (GMT -0500)
West Point

Weather History for KFYJ - March, 2013

Change the Weather History Date:

Thursday, March 7, 2013

  Actual Average (KJGG) Record (KJGG)
Temperature  
Mean Temperature 45 °F -  
Max Temperature 52 °F 57 °F 82 °F (1956)
Min Temperature 38 °F 34 °F 13 °F (1960)
Degree Days  
Heating Degree Days 20    
Moisture  
Dew Point 31 °F    
Average Humidity 61    
Maximum Humidity 83    
Minimum Humidity 41    
Precipitation  
Precipitation 0.03 in - - ()
Sea Level Pressure  
Sea Level Pressure 30.07 in    
Wind  
Wind Speed 11 mph (NW)    
Max Wind Speed 20 mph    
Max Gust Speed 28 mph    
Visibility 10 miles    
Events      
Averages and records for this station are not official NWS values.
T = Trace of Precipitation, MM = Missing Value Source: NWS Daily Summary

Daily Weather History Graph

Daily Weather History Graph

Search for Another Location

Airport or City:

Trip Planner

Search our weather history database for the weather conditions in past years. The results will help you decide how hot, cold, wet, or windy it might be!

Date:

Astronomy

Mar. 07, 2013 Rise Set
Actual Time 6:29 AM EST 6:06 PM EST
Civil Twilight 6:03 AM EST 6:33 PM EST
Nautical Twilight 5:33 AM EST 7:03 PM EST
Astronomical Twilight 5:02 AM EST 7:33 PM EST
Moon 3:23 AM EST (3/7) 1:56 PM EST (3/7)
Length of Visible Light 12h 29m
Length of Day
11h 37m
Waning Crescent, 20% of the Moon is Illuminated
Mar 7
Waning Crescent
Mar 11
New
Mar 19
First Quarter
Mar 27
Full
Apr 3
Last Quarter

Hourly Weather History & Observations

Time (EST) Temp. Windchill Dew Point Humidity Pressure Visibility Wind Dir Wind Speed Gust Speed Precip Events Conditions
12:15 AM 40.1 °F 33.6 °F 35.2 °F 83% 29.95 in 10.0 mi NW 10.4 mph 19.6 mph N/A   Overcast
12:35 AM 40.1 °F 32.4 °F 34.9 °F 82% 29.95 in 10.0 mi NW 13.8 mph 18.4 mph N/A   Overcast
12:55 AM 40.3 °F 33.0 °F 34.7 °F 80% 29.95 in 10.0 mi NW 12.7 mph 19.6 mph N/A   Overcast
1:15 AM 40.6 °F 34.3 °F 33.8 °F 77% 29.96 in 10.0 mi NNW 10.4 mph 20.7 mph N/A   Overcast
1:35 AM 41.0 °F 35.8 °F 33.4 °F 74% 29.96 in 10.0 mi NNW 8.1 mph 21.9 mph N/A   Overcast
1:55 AM 41.0 °F 34.7 °F 32.9 °F 73% 29.96 in 10.0 mi NNW 10.4 mph 19.6 mph N/A   Overcast
2:15 AM 41.0 °F 35.2 °F 32.2 °F 71% 29.96 in 10.0 mi NNW 9.2 mph 20.7 mph N/A   Overcast
2:35 AM 41.0 °F 35.2 °F 32.4 °F 71% 29.96 in 10.0 mi NNW 9.2 mph 17.3 mph N/A   Overcast
2:55 AM 41.2 °F 34.1 °F 32.4 °F 71% 29.97 in 10.0 mi NNW 12.7 mph 19.6 mph N/A   Overcast
3:15 AM 41.0 °F 35.8 °F 32.9 °F 73% 29.97 in 10.0 mi NNW 8.1 mph 16.1 mph N/A   Overcast
3:35 AM 40.5 °F 35.1 °F 32.9 °F 74% 29.98 in 10.0 mi NNW 8.1 mph 16.1 mph N/A   Overcast
3:55 AM 40.1 °F 34.1 °F 33.3 °F 77% 30.00 in 10.0 mi NNW 9.2 mph - N/A   Overcast
4:15 AM 40.1 °F 34.7 °F 33.3 °F 77% 30.00 in 10.0 mi NW 8.1 mph - N/A   Overcast
4:35 AM 39.7 °F 34.3 °F 33.3 °F 78% 30.01 in 10.0 mi NW 8.1 mph - N/A   Overcast
4:55 AM 39.7 °F 34.3 °F 32.9 °F 77% 30.02 in 10.0 mi NW 8.1 mph - N/A   Overcast
5:15 AM 39.6 °F 34.7 °F 32.9 °F 77% 30.02 in 10.0 mi NW 6.9 mph - N/A   Overcast
5:35 AM 39.4 °F 33.8 °F 32.9 °F 78% 30.03 in 10.0 mi NW 8.1 mph - N/A   Overcast
5:55 AM 39.4 °F 33.8 °F 32.4 °F 76% 30.04 in 10.0 mi NW 8.1 mph - N/A   Overcast
6:15 AM 38.7 °F 32.9 °F 32.0 °F 77% 30.05 in 10.0 mi NW 8.1 mph - N/A   Mostly Cloudy
6:35 AM 38.5 °F 31.6 °F 32.0 °F 78% 30.06 in 10.0 mi NW 10.4 mph - N/A   Scattered Clouds
6:55 AM 38.3 °F 33.9 °F 32.0 °F 78% 30.06 in 10.0 mi NW 5.8 mph - N/A   Clear
7:15 AM 38.5 °F 35.0 °F 32.0 °F 78% 30.07 in 10.0 mi NW 4.6 mph - N/A   Clear
7:35 AM 39.2 °F 34.2 °F 32.2 °F 76% 30.07 in 10.0 mi NW 6.9 mph - N/A   Clear
7:55 AM 39.7 °F 34.3 °F 32.4 °F 75% 30.08 in 10.0 mi NW 8.1 mph - N/A   Clear
8:15 AM 40.3 °F 34.9 °F 32.4 °F 73% 30.09 in 10.0 mi NW 8.1 mph - N/A   Clear
8:35 AM 41.4 °F 35.2 °F 32.2 °F 70% 30.10 in 10.0 mi NW 10.4 mph - N/A   Clear
8:55 AM 42.8 °F 36.6 °F 32.4 °F 67% 30.10 in 10.0 mi NNW 11.5 mph 16.1 mph N/A   Clear
9:15 AM 43.7 °F 38.1 °F 32.0 °F 63% 30.10 in 10.0 mi NNW 10.4 mph 18.4 mph N/A   Clear
9:35 AM 44.2 °F 38.0 °F 30.0 °F 57% 30.10 in 10.0 mi NNW 12.7 mph 25.3 mph N/A   Clear
9:55 AM 45.1 °F 39.5 °F 30.6 °F 57% 30.10 in 10.0 mi NNW 11.5 mph 24.2 mph N/A   Clear
10:15 AM 46.4 °F 40.1 °F 30.4 °F 54% 30.10 in 10.0 mi NW 15.0 mph 21.9 mph N/A   Clear
10:35 AM 46.4 °F 39.8 °F 29.5 °F 52% 30.11 in 10.0 mi NNW 16.1 mph 24.2 mph N/A   Clear
10:55 AM 46.8 °F - 29.5 °F 51% 30.11 in 10.0 mi NNW 16.1 mph 26.5 mph N/A   Clear
11:15 AM 47.7 °F - 30.2 °F 51% 30.11 in 10.0 mi NNW 16.1 mph 23.0 mph N/A   Scattered Clouds
11:35 AM 48.9 °F - 30.9 °F 50% 30.10 in 10.0 mi NW 16.1 mph 25.3 mph N/A   Scattered Clouds
11:55 AM 48.9 °F - 29.8 °F 48% 30.10 in 10.0 mi NNW 16.1 mph 25.3 mph N/A   Clear
12:15 PM 49.5 °F - 29.5 °F 46% 30.10 in 10.0 mi NW 13.8 mph 24.2 mph N/A   Clear
12:35 PM 49.6 °F - 28.4 °F 44% 30.09 in 10.0 mi NW 12.7 mph 27.6 mph N/A   Clear
12:55 PM 50.0 °F - 28.8 °F 44% 30.08 in 5.0 mi NW 12.7 mph 21.9 mph N/A   Clear
1:15 PM 50.5 °F - 29.7 °F 45% 30.07 in 10.0 mi NW 15.0 mph 23.0 mph N/A   Clear
1:35 PM 51.1 °F - 28.9 °F 43% 30.07 in 10.0 mi NW 11.5 mph 23.0 mph N/A   Scattered Clouds
1:55 PM 51.6 °F - 30.0 °F 44% 30.06 in 10.0 mi NW 15.0 mph 21.9 mph N/A   Scattered Clouds
2:15 PM 51.3 °F - 29.8 °F 44% 30.06 in 10.0 mi NNW 13.8 mph 21.9 mph N/A   Scattered Clouds
2:35 PM 51.3 °F - 28.9 °F 42% 30.06 in 10.0 mi WNW 19.6 mph 25.3 mph N/A   Scattered Clouds
2:55 PM 52.5 °F - 29.1 °F 41% 30.07 in 10.0 mi NW 15.0 mph 25.3 mph N/A   Mostly Cloudy
3:15 PM 50.0 °F - 28.6 °F 44% 30.07 in 10.0 mi NW 13.8 mph 19.6 mph N/A   Mostly Cloudy
3:35 PM 51.8 °F - 29.8 °F 43% 30.07 in 10.0 mi NW 15.0 mph 24.2 mph N/A   Mostly Cloudy
3:55 PM 50.7 °F - 29.5 °F 44% 30.08 in 10.0 mi WNW 10.4 mph 26.5 mph N/A   Scattered Clouds
4:15 PM 50.2 °F - 28.6 °F 43% 30.09 in 5.0 mi NW 8.1 mph 21.9 mph N/A   Scattered Clouds
4:35 PM 50.2 °F - 29.5 °F 45% 30.09 in 10.0 mi NW 11.5 mph 18.4 mph N/A   Mostly Cloudy
4:55 PM 48.7 °F - 28.0 °F 45% 30.10 in 10.0 mi NW 11.5 mph 20.7 mph N/A   Scattered Clouds
5:15 PM 47.5 °F - 28.4 °F 48% 30.11 in 10.0 mi NW 9.2 mph 17.3 mph N/A   Scattered Clouds
5:35 PM 46.9 °F - 28.2 °F 48% 30.11 in 10.0 mi NW 11.5 mph 19.6 mph N/A   Scattered Clouds
5:55 PM 46.4 °F 41.5 °F 28.0 °F 49% 30.13 in 10.0 mi NW 10.4 mph 18.4 mph N/A   Mostly Cloudy
6:15 PM 45.9 °F 40.8 °F 28.2 °F 50% 30.13 in 10.0 mi WNW 10.4 mph 17.3 mph N/A   Mostly Cloudy
6:35 PM 45.5 °F 42.5 °F 28.4 °F 51% 30.14 in 10.0 mi NW 5.8 mph - N/A   Overcast
6:55 PM 45.0 °F 40.1 °F 28.6 °F 53% 30.15 in 10.0 mi WNW 9.2 mph - N/A   Mostly Cloudy
8:35 PM 43.9 °F 38.8 °F 29.3 °F 57% 30.16 in 10.0 mi WNW 9.2 mph 16.1 mph N/A   Overcast
8:55 PM 43.3 °F 39.2 °F 29.1 °F 57% 30.16 in 10.0 mi WNW 6.9 mph - N/A   Mostly Cloudy
9:15 PM 42.6 °F 36.3 °F 28.9 °F 58% 30.16 in 10.0 mi WNW 11.5 mph 16.1 mph N/A   Scattered Clouds
9:35 PM 42.1 °F 37.7 °F 28.8 °F 59% 30.16 in 10.0 mi WNW 6.9 mph - N/A   Clear
9:55 PM 41.9 °F 37.5 °F 28.8 °F 60% 30.16 in 10.0 mi WNW 6.9 mph - N/A   Clear
10:15 PM 41.2 °F 36.0 °F 28.4 °F 60% 30.16 in 10.0 mi WNW 8.1 mph - N/A   Clear
10:35 PM 40.8 °F 36.9 °F 28.8 °F 62% 30.16 in 10.0 mi WNW 5.8 mph - N/A   Scattered Clouds
10:55 PM 41.0 °F 36.4 °F 28.9 °F 62% 30.16 in 10.0 mi WNW 6.9 mph - N/A   Mostly Cloudy
11:15 PM 41.0 °F 35.8 °F 29.1 °F 63% 30.16 in 10.0 mi WNW 8.1 mph - N/A   Mostly Cloudy
11:35 PM 40.3 °F 34.9 °F 28.9 °F 64% 30.16 in 10.0 mi WNW 8.1 mph - N/A   Scattered Clouds
11:55 PM 39.6 °F 34.7 °F 28.6 °F 65% 30.16 in 10.0 mi WNW 6.9 mph - N/A   Scattered Clouds